Tracking 33188 objects as of 10-Feb-2026
HD Live streaming from Space Station
objects crossing your sky now

STARLINK-3852

Track STARLINK-3852 now!
10-day predictions
STARLINK-3852 is classified as:


NORAD ID: 52345
Int'l Code: 2022-045Q
Perigee: 546.0 km
Apogee: 547.7 km
Inclination: 53.2 °
Period: 95.4 minutes
Semi major axis: 6917 km
RCS: Unknown
Launch date: April 29, 2022
Source: United States (US)
Launch site: AIR FORCE EASTERN TEST RANGE (AFETR)
Your satellite tracking list
Your tracking list is empty




NASA's NSSDC Master Catalog

Two Line Element Set (TLE):
1 52345U 22045Q   26041.05307314 -.00001184  00000-0 -56301-4 0  9993
2 52345  53.2186 323.3462 0001250  85.5443 274.5692 15.08846852211596
Source of the keplerian elements: AFSPC